Regional Weather Roundup
Issued by NWS

Home | Current Version | Previous Version | Text Only | Print | Product List | Glossary Off
Versions: 1 2 3 4 5 6 7 8 9 10 11 12 13 14 15 16 17 18 19 20 21 22 23 24 25 26 27 28 29 30 31 32 33 34 35 36 37 38 39 40 41 42 43 44 45 46 47 48 49 50

000
ASUS45 KTFX 241004
RWRMT
MONTANA HOURLY WEATHER ROUNDUP
NATIONAL WEATHER SERVICE GREAT FALLS MT
404 AM MDT THU APR 24 2014

NOTE: "FAIR" INDICATES FEW OR NO CLOUDS BELOW 12000 FEET WITH NO
SIGNIFICANT WEATHER AND/OR OBSTRUCTIONS TO VISIBILITY.

* THESE STATIONS ARE NOT UNDER NWS QUALITY CONTROL. THEY DO NOT
   REPORT WEATHER SUCH AS PRECIPITATION OR FOG.

MTZ001>007-043-241100-
WEST OF THE DIVIDE
CITY           SKY/WX    TMP DP  RH WIND       PRES   REMARKS
KALISPELL      CLOUDY    36  30  79 SW3       29.83F
MISSOULA       CLOUDY    37  36  96 CALM      29.88F
BUTTE          MOCLDY    37  21  52 SW5       29.86S WCI  33
MULLAN PASS    LGT SNOW  28  27  96 VRB3      29.76F VSB 1/2
* ESSEX        N/A       34  28  79 N/A        N/A
* LINCOLN      N/A       32  32 100 S5         N/A   WCI  27
* POLSON       N/A       35  32  89 S1G6       N/A
* SEELEY LAKE  N/A       32  31  96 N/A        N/A
* THOMP F APT  CLOUDY    25  20  81 N1G8       N/A
* YAAK HILL    N/A       36  33  89 N/A        N/A
$$

MTZ008-052>055-241100-
SOUTHWEST MONTANA
CITY           SKY/WX    TMP DP  RH WIND       PRES   REMARKS
BOZEMAN        CLOUDY    45  19  35 SW12      29.87S
DILLON         PTCLDY    36  23  59 S12       29.88F WCI  28
W YELLOWSTONE  N/A       27  23  85 W2G9       N/A
* THREE FORKS  MOCLDY    45  27  49 SW10G16    N/A
* BOULDER HILL N/A       35  22  59 S8         N/A   WCI  28
* MONIDA PASS  N/A       23  19  85 SE14       N/A   WCI  10
* RAYNOLDS PAS N/A       23  10  57 S11        N/A   WCI  12
* WHITEHALL    N/A       41  21  45 SW11G21    N/A
* WISE RIVER   N/A       36  22  57 W15G22     N/A   WCI  27
$$

MTZ009>010-012-014-046-048-049-054-241100-
EAST SLOPES AND CENTRAL MONTANA
CITY           SKY/WX    TMP DP  RH WIND       PRES   REMARKS
CUT BANK       PTCLDY    36  23  59 W17       29.74R WCI  26
GREAT FALLS    MOCLDY    36  28  73 SW10      29.78S WCI  29
HELENA         CLOUDY    37  36  96 SE6       29.86S WCI  32
MALMSTROM AFB  MOCLDY    37  28  70 SW15      29.76R WCI  28
* CONRAD       PTCLDY    30  23  75 N/A        N/A
* DEARBORN     N/A       42  28  58 SW6G11     N/A
* EAST GLACIER N/A       34  20  57 W9G14      N/A   WCI  27
* MONARCH      N/A       33  17  52 SW11G17    N/A   WCI  24
* PENDROY      N/A       36  21  54 W13        N/A   WCI  27
* ROGERS PASS  N/A       30  27  89 SE11G19    N/A   WCI  21
* SAINT MARY   N/A       33  25  72 S6G22      N/A   WCI  27
* SWEET GRASS  N/A       34  20  57 S16G22     N/A   WCI  24
$$

MTZ011-013-016-021-035-040-045-047-050-051-241100-
NORTH CENTRAL MONTANA
CITY           SKY/WX    TMP DP  RH WIND       PRES   REMARKS
HAVRE          CLEAR     34  27  76 W12       29.76R WCI  25
LEWISTOWN      MOCLDY    34  25  70 W9        29.79R WCI  27
* CHESTER      N/A       32  22  67 W6         N/A   WCI  26
* DENTON       N/A       34  25  70 SW12       N/A   WCI  25
* GEYSER       N/A       38  22  53 W14G20     N/A   WCI  30
* JUDITH GAP   N/A       36  28  73 W18G26     N/A   WCI  26
* LOMA         N/A       37  29  73 SW5        N/A   WCI  33
$$

MTZ017>020-022>027-061-062-241100-
NORTHEAST MONTANA
CITY           SKY/WX    TMP DP  RH WIND       PRES   REMARKS
GLASGOW        CLEAR     36  27  70 W8        29.71R WCI  30
JORDAN         CLEAR     34  25  70 W9        29.75S WCI  27
WOLF POINT     PTCLDY    34  25  70 W8        29.71S WCI  27
* BEAVER HILL  N/A       38  22  53 S11        N/A   WCI  31
* CIRCLE       N/A       38  25  60 SW6        N/A   WCI  33
* LINDSAY DVD  N/A       39  23  53 SW17G22    N/A   WCI  30
* NAVAJO       N/A       38  25  60 W18        N/A   WCI  28
* SACO         N/A       37  25  62 W7G12      N/A   WCI  32
$$

MTZ028>042-056>058-241100-
SOUTHCENTRAL AND SOUTHEAST MONTANA
CITY           SKY/WX    TMP DP  RH WIND       PRES   REMARKS
BAKER          PTCLDY    37  23  57 SW12      29.79R WCI  29
BILLINGS       CLOUDY    43  25  49 SW8       29.83R
LIVINGSTON     CLOUDY    45  18  34 SW24G36   29.82F
MILES CITY     MOCLDY    43  27  53 W10       29.79R
* LAUREL APT   MOCLDY    37  19  48 N/A        N/A
* ROUNDUP APT  MOCLDY    45  25  45 W18G23     N/A
* HYSHAM       N/A       45  23  42 W16G22     N/A
* REED POINT   N/A       34  28  79 SE6        N/A   WCI  29
* ROSCOE HILL  N/A       39  11  31 N/A        N/A
$$

REGIONAL REPORTS...DAKOTAS
CITY           SKY/WX    TMP DP  RH WIND       PRES   REMARKS
WILLISTON      CLEAR     36  25  64 W6        29.68S WCI  31
DICKINSON      CLEAR     34  21  59 W10       29.73R WCI  26
CROSBY         CLEAR     34  34 100 SW8       29.65R WCI  27
TIOGA          CLEAR     36  30  79 W15       29.69R WCI  27
WATFORD CITY   CLEAR     32  25  75 SW9       29.69R WCI  24
BISMARCK       PTCLDY    37 N/A N/A W5        29.71F WCI  33
GRAND FORKS    CLOUDY    39  37  93 SE12      29.78F WCI  32
FARGO          CLOUDY    43  37  79 SE8       29.76F
BUFFALO SD     CLEAR     34  23  64 W13       29.75S WCI  25
RAPID CITY     CLEAR     36  21  54 NW12      29.85S WCI  28
$$

REGIONAL REPORTS...WYOMING/IDAHO/WASHINGTON
CITY           SKY/WX    TMP DP  RH WIND       PRES   REMARKS
GILLETTE       CLEAR     32  19  59 SW12      29.86S WCI  23
SHERIDAN       PTCLDY    43  18  37 SW8G22    29.83S
CODY           PTCLDY    43  18  37 W20G25    29.87R
YELLOWSTONE LA PTCLDY    27  19  72 W8        29.99R WCI  19
SALMON         CLOUDY    41  25  53 CALM      29.88F
MULLAN PASS    LGT SNOW  28  27  96 VRB3      29.76S VSB 1/2
SPOKANE        LGT RAIN  41  37  86 SE6       29.77F

$$




USA.gov is the U.S. government's official web portal to all federal, state and local government web resources and services.